Weather History for Palma de Mallorca, Spain

Change the Weather History Date:

Wednesday, March 21, 2012

  Actual Average Record
Temperature  
Mean Temperature 61 °F -  
Max Temperature 68 °F 65 °F 69 °F (2001)
Min Temperature 54 °F 44 °F 32 °F (2008)
Degree Days  
Heating Degree Days 4    
Growing Degree Days 11 (Base 50)    
Moisture  
Dew Point 56 °F    
Average Humidity 87    
Maximum Humidity 100    
Minimum Humidity 64    
Precipitation  
Precipitation 0.00 in 0.05 in - ()
Sea Level Pressure  
Sea Level Pressure 30.17 in    
Wind  
Wind Speed 7 mph ()    
Max Wind Speed 14 mph    
Max Gust Speed 15 mph    
Visibility 5.2 miles    
Events      
Averages and records for this station are not official NWS values.
T = Trace of Precipitation, MM = Missing Value Source: Averaged Metar Reports

Daily Weather History Graph

Daily Weather History Graph

Search for Another Location

Airport:

Trip Planner

Search our weather history database for the weather conditions in past years. The results will help you decide how hot, cold, wet, or windy it might be!

Date:

Astronomy

Mar. 21, 2012 Rise Set
Actual Time 6:50 AM CET 7:02 PM CET
Civil Twilight 6:23 AM CET 7:29 PM CET
Nautical Twilight 5:52 AM CET 8:00 PM CET
Astronomical Twilight 5:20 AM CET 8:32 PM CET
Moon 5:54 AM CET (3/21) 6:14 PM CET (3/21)
Length of Visible Light 13h 05m
Length of Day
12h 11m
Waning Crescent, 1% of the Moon is Illuminated
Mar 21
Waning Crescent
Mar 22
New
Mar 30
First Quarter
Apr 6
Full
Apr 13
Last Quarter

Hourly Weather History & Observations

Time (CET) Temp. Dew Point Humidity Pressure Visibility Wind Dir Wind Speed Gust Speed Precip Events Conditions
12:00 AM 55.4 °F 53.6 °F 94% 30.21 in 6.2 mi ENE 9.2 mph - N/A   Mostly Cloudy
12:30 AM 55.4 °F 53.6 °F 94% 30.18 in 6.2 mi ENE 9.2 mph - N/A   Scattered Clouds
1:00 AM 56 °F 53 °F 86% 30.19 in 9 mi ENE 12.7 mph - -   Scattered Clouds
1:00 AM 55.4 °F 53.6 °F 94% 30.18 in 6.2 mi ENE 13.8 mph - N/A   Partly Cloudy
1:30 AM 55.4 °F 53.6 °F 94% 30.18 in 6.2 mi ENE 11.5 mph - N/A   Scattered Clouds
2:00 AM 55.4 °F 53.6 °F 94% 30.18 in 6.2 mi Variable 2.3 mph - N/A   Scattered Clouds
2:30 AM 55.4 °F 53.6 °F 94% 30.18 in 6.2 mi ENE 3.5 mph - N/A   Mostly Cloudy
3:00 AM 55.4 °F 53.6 °F 94% 30.18 in 6.2 mi ENE 8.1 mph - N/A   Mostly Cloudy
3:30 AM 55.4 °F 53.6 °F 94% 30.18 in 6.2 mi East 4.6 mph - N/A   Scattered Clouds
4:00 AM 55.4 °F 53.6 °F 94% 30.18 in 6.2 mi ENE 3.5 mph - N/A   Mostly Cloudy
4:30 AM 55.4 °F 53.6 °F 94% 30.15 in 6.2 mi ENE 6.9 mph - N/A   Mostly Cloudy
5:00 AM 55.4 °F 53.6 °F 94% 30.15 in 6.2 mi ENE 5.8 mph - N/A   Partly Cloudy
5:30 AM 57.2 °F 55.4 °F 94% 30.12 in 6.2 mi NE 10.4 mph - N/A   Partly Cloudy
6:00 AM 57.2 °F 53.6 °F 88% 30.12 in 6.2 mi ENE 9.2 mph - N/A   Partly Cloudy
6:30 AM 57.2 °F 55.4 °F 94% 30.15 in 6.2 mi East 10.4 mph - N/A   Partly Cloudy
7:00 AM 56 °F 55 °F 95% 30.15 in 4 mi East 8.1 mph - -   Mist
7:00 AM 57.2 °F 55.4 °F 94% 30.15 in 3.7 mi ENE 5.8 mph - N/A   Partly Cloudy
7:13 AM 55.4 °F 55.4 °F 100% 30.15 in 2.5 mi NE 8.1 mph - N/A   Partly Cloudy
7:30 AM 55.4 °F 55.4 °F 100% 30.15 in 2.5 mi NE 9.2 mph - N/A   Partly Cloudy
8:00 AM 57.2 °F 55.4 °F 94% 30.15 in 2.5 mi NE 9.2 mph - N/A   Mostly Cloudy
8:30 AM 57.2 °F 55.4 °F 94% 30.18 in 2.5 mi NE 3.5 mph - N/A   Mostly Cloudy
9:00 AM 57.2 °F 55.4 °F 94% 30.18 in 2.5 mi NE 6.9 mph - N/A   Mostly Cloudy
9:30 AM 59.0 °F 57.2 °F 94% 30.18 in 3.7 mi NE 9.2 mph - N/A   Mostly Cloudy
10:00 AM 60.8 °F 57.2 °F 88% 30.18 in 4.3 mi ENE 5.8 mph - N/A   Mostly Cloudy
10:30 AM 60.8 °F 57.2 °F 88% 30.18 in 4.3 mi Calm Calm - N/A   Mostly Cloudy
11:00 AM 60.8 °F 57.2 °F 88% 30.21 in 5.0 mi Variable 1.2 mph - N/A   Mostly Cloudy
11:30 AM 60.8 °F 57.2 °F 88% 30.21 in 5.0 mi Calm Calm - N/A   Mostly Cloudy
12:00 PM 62.6 °F 57.2 °F 82% 30.21 in 5.0 mi East 4.6 mph - N/A   Mostly Cloudy
12:30 PM 64.4 °F 57.2 °F 77% 30.21 in 5.0 mi East 9.2 mph - N/A   Mostly Cloudy
1:00 PM 64 °F 58 °F 75% 30.20 in 5 mi NE 8.1 mph - -   Mist
1:00 PM 64.4 °F 57.2 °F 77% 30.18 in 5.0 mi Variable 2.3 mph - N/A   Mostly Cloudy
1:30 PM 64.4 °F 57.2 °F 77% 30.18 in 5.0 mi NNE 4.6 mph - N/A   Mostly Cloudy
2:00 PM 66.2 °F 57.2 °F 73% 30.15 in 5.6 mi NE 3.5 mph - N/A   Mostly Cloudy
2:30 PM 66.2 °F 57.2 °F 73% 30.15 in 5.6 mi Variable 1.2 mph - N/A   Partly Cloudy
3:00 PM 66.2 °F 55.4 °F 68% 30.15 in 5.6 mi NE 5.8 mph - N/A   Partly Cloudy
3:30 PM 68.0 °F 55.4 °F 64% 30.12 in 5.6 mi North 3.5 mph 15.0 mph N/A   Partly Cloudy
4:00 PM 68.0 °F 57.2 °F 68% 30.12 in 5.6 mi Variable 2.3 mph - N/A   Partly Cloudy
4:30 PM 68.0 °F 57.2 °F 68% 30.12 in 5.6 mi West 5.8 mph - N/A   Partly Cloudy
5:00 PM 68.0 °F 57.2 °F 68% 30.12 in 5.6 mi WSW 3.5 mph - N/A   Partly Cloudy
5:30 PM 68.0 °F 59.0 °F 73% 30.12 in 5.6 mi ENE 5.8 mph - N/A   Partly Cloudy
6:00 PM 64.4 °F 59.0 °F 83% 30.15 in 5.6 mi NE 5.8 mph - N/A   Partly Cloudy
6:30 PM 62.6 °F 57.2 °F 82% 30.15 in 5.6 mi NE 9.2 mph - N/A   Partly Cloudy
7:00 PM 61 °F 58 °F 85% 30.16 in 6 mi ENE 11.5 mph - -   Mist
7:00 PM 60.8 °F 57.2 °F 88% 30.15 in 5.6 mi ENE 9.2 mph - N/A   Partly Cloudy
7:30 PM 60.8 °F 57.2 °F 88% 30.15 in 5.6 mi ENE 6.9 mph - N/A   Partly Cloudy
8:00 PM 59.0 °F 57.2 °F 94% 30.15 in 5.6 mi NE 9.2 mph - N/A   Partly Cloudy
8:30 PM 59.0 °F 55.4 °F 88% 30.15 in 5.6 mi NE 10.4 mph - N/A   Partly Cloudy
9:00 PM 59.0 °F 55.4 °F 88% 30.18 in 5.0 mi NW 2.3 mph - N/A   Partly Cloudy
9:30 PM 59.0 °F 55.4 °F 88% 30.21 in 5.0 mi Variable 2.3 mph - N/A   Partly Cloudy
10:00 PM 59.0 °F 55.4 °F 88% 30.21 in 5.0 mi Variable 2.3 mph 13.8 mph N/A   Scattered Clouds
10:30 PM 57.2 °F 55.4 °F 94% 30.21 in 5.0 mi North 3.5 mph - N/A   Partly Cloudy
11:00 PM 57.2 °F 57.2 °F 100% 30.21 in 4.3 mi ENE 5.8 mph - N/A   Scattered Clouds
11:30 PM 59.0 °F 51.8 °F 77% 30.24 in 5.6 mi WSW 4.6 mph - N/A   Scattered Clouds